CZ-6A DEB, 60710

Orbit data source: Space-Track

CZ-6A DEB, 60710 is space debris in LEO originally from a launch on Tue, 06 Aug 2024 UTC launched from the Taiyaun Space Center, China (TSC). Debris objects in space refer to the collection of defunct objects orbiting the Earth. Examples of debris include non-operational satellites, rocket bodies, and fragments generated from explosions, collisions, or faulty payload assembly.

Loading next visibility...
Identifier
60710, 2024-140DP
Orbit
LEO
Country
Flag of CNCN / PRC
Related business
Manufacturer
SAST
Mission
Spacecraft
Bus & Motor
Unknown
Mass
Unknown
Launch date (UTC)
2024-08-06 (2 years ago)
Launch vehicle
Unknown
Launch site
Taiyaun Space Center, China (TSC)
Object type
Payload
Rocket body
Debris
Shape & HBR
Unknown shape, 0.3 m
Radar Cross Section
Small (<0.1 m²)

Expand to show TLE details & history
Last TLE update: 9 hours ago

TLE from 9 hours ago
0 CZ-6A DEB
1 60710U 24140DP  26118.75989771  .00000279  00000-0  12426-3 0  9992
2 60710  89.2037 295.6024 0042469 339.5316  20.4170 14.19827678 88629
Epoch: 2026-04-28T18:14Z
TLE epoch observation values (Epoch: 2026-04-28T18:14:15.162Z)
Latitude
-0.00002°
Longitude
165.30863°
Altitude
800.326 km
Speed
7.468 km/s
True Right ascension
19h 42m 24s
True Declination
0° 00' 00"
Sunlit
Object was in daylight at epoch
Visualization orbit readout
Latitude
Unknown
Longitude
Unknown
Altitude
Unknown
Speed
Unknown
Apparent Right ascension
Unknown
Apparent Declination
Unknown
Sunlit
N/A
Visualization observer readout
Local Sidereal Time
10:58:53
Azimuth
Unknown
Elevation
Unknown
Doppler factor
Unknown
Orbital elements
Apogee altitude
853.468 km
Perigee altitude
792.304 km
Semi-major axis
7,201.023 km
Eccentricity
0.00425
Inclination
89.2037°
RAAN
295.6024°
Arg. of periapsis
339.5316°
True anomaly
20.58762°
Mean anomaly
20.417°
Eccentric anomaly
20.50222°
Mean motion
3.55183 °/min
Orbital period
101.36 mins
BSTAR
0.00012426
Loading maneuver chart data...
Computing Atmospheric mass density...
Loading historical data...
Loading historical data...
Loading historical data...
Loading historical data...
Loading historical data...
Loading historical data...
Loading historical data...

Documentation

Showing up to 5 results
|